ENAL

Alesund/Vigra

Airport
ICAO code
ENAL
Summary
ICAO Region
EUR
ICAO Territory
Location

Alesund/Vigra,

Elevation
69 ft
Coordinates
62° 33' 45" N , 6° 7' 11" E
KCC
Metar
Observation
ENAL 271420Z 22023G33KT 9999 FEW041 SCT068 06/00 Q1018
Station
Alesund / Vigra
Date/Time
2023-01-27 15:20:00
Wind direction
220°
Wind speed
23 kts
Lowest cloud amount
few clouds
Temperature
6°C
Dew point
0°C
Humidity
65%
QNH
1018 hPa
Weather condition
n/a

Description

Airport serving Alesund, Norway.

Climatology

Temperate Marine climate/Oceanic climate (Köppen climate classification Cfb). Moderately cool summer and comparatively warm winter with a temperature range of only 14°C. Prevailing south-westerly winds from the Atlantic Ocean.

Runways

Designator Length Width Surface Rops
7/25 2314 45 ASP Yes/Yes

Airport map

Aerial View

SKYbrary Partners:

Safety knowledge contributed by: